Waarnemingen

Advertentie
Mijn weer
Tännäs, Zweden (2308): temperatuur & dauwpunt: 14.09.2020 19:00:00 - 20.09.2020 19:00:00 (CEST)Tännäs, Zweden (2308): windsnelheid & windstoten: 14.09.2020 19:00:00 - 20.09.2020 19:00:00 (CEST)Tännäs, Zweden (2308): windrichting: 14.09.2020 19:00:00 - 20.09.2020 19:00:00 (CEST)Tännäs, Zweden (2308): luchtdruk: 14.09.2020 19:00:00 - 20.09.2020 19:00:00 (CEST)Tännäs, Zweden (2308): zicht: 14.09.2020 19:00:00 - 20.09.2020 19:00:00 (CEST)Tännäs, Zweden (2308): neerslag: 14.09.2020 19:00:00 - 20.09.2020 19:00:00 (CEST)
Datum & Tijd tt [°C] td [°C] ff [km/u] ff [kn] fx [km/u] fx [kn] dd ppp [hPa] vv [km] rr [mm]
20.09.2020 19:00:00 8,8 4,6 7 4 22 12 WNW 1014,4 50 0,0
20.09.2020 18:00:00 8,8 4,8 3 1 8 5 Z 1014,5 20 0,0
20.09.2020 17:00:00 8,9 4,0 3 1 8 4 O 1013,9 50 0,0
20.09.2020 16:00:00 8,9 3,1 2 1 11 6 ZZO 1014,2 50 0,0
20.09.2020 15:00:00 10,5 3,8 2 1 10 5 ZW 1014,1 50 0,0
20.09.2020 14:00:00 11,0 3,1 3 1 16 9 WZW 1014,3 50 0,0
20.09.2020 13:00:00 10,6 1,9 4 2 13 7 W 1015,0 50 0,0
20.09.2020 12:00:00 8,1 1,2 3 1 8 4 NW 1016,2 50 0,0
20.09.2020 11:00:00 5,9 1,6 0 0 5 3 N 1017,3 50 0,0
20.09.2020 10:00:00 5,1 1,4 2 1 6 4 Z 1017,9 50 0,0
20.09.2020 09:00:00 4,1 0,6 0 0 5 3 N 1018,2 50 0,0
20.09.2020 08:00:00 2,1 -1,3 0 0 5 3 N 1019,2 50 0,0
20.09.2020 07:00:00 1,7 -1,2 2 1 7 4 OZO 1019,8 50 0,0
20.09.2020 06:00:00 -0,4 -3,6 0 0 11 6 N 1020,6 50 0,0
20.09.2020 05:00:00 0,5 -2,2 0 0 5 3 N 1021,0 50 0,0
20.09.2020 04:00:00 0,4 -2,2 2 1 5 3 OZO 1021,1 50 0,0
20.09.2020 03:00:00 -0,5 -3,4 0 0 5 3 N 1022,1 50 0,0
20.09.2020 02:00:00 -0,6 -3,6 0 0 5 3 N 1022,7 50 0,0
20.09.2020 01:00:00 0,0 -3,0 2 1 6 4 NO 1023,4 50 0,0
20.09.2020 00:00:00 0,3 -2,8 0 0 4 2 N 1023,5 50 0,0
19.09.2020 23:00:00 0,9 -2,2 2 1 3 2 NO 1024,1 50 0,0
19.09.2020 22:00:00 1,5 -2,1 0 0 4 2 N 1024,6 50 0,0
19.09.2020 21:00:00 1,9 -1,7 0 0 3 2 N 1025,0 50 0,0
19.09.2020 20:00:00 2,6 -1,2 0 0 4 2 N 1025,0 50 0,0
19.09.2020 19:00:00 4,6 -0,6 0 0 8 5 N 1024,4 50 0,0
19.09.2020 18:00:00 7,7 -1,3 3 1 20 11 W 1023,7 50 0,0
19.09.2020 17:00:00 8,7 -0,6 5 3 25 14 W 1023,8 50 0,0
19.09.2020 16:00:00 10,8 0,0 5 3 22 12 W 1023,8 50 0,0
19.09.2020 15:00:00 7,7 -1,0 9 5 27 15 WNW 1025,2 50 0,0
19.09.2020 14:00:00 7,9 -0,1 6 4 26 14 WNW 1025,7 39 0,0
19.09.2020 13:00:00 8,0 0,3 6 3 29 16 WNW 1026,1 50 0,0
19.09.2020 12:00:00 7,8 -0,2 8 4 25 14 WNW 1026,1 50 0,0
19.09.2020 11:00:00 6,6 0,1 5 3 27 15 NW 1026,7 50 0,0
19.09.2020 10:00:00 6,4 0,1 7 4 22 12 NW 1026,4 50 0,0
19.09.2020 09:00:00 5,6 0,0 6 3 21 11 WNW 1026,1 50 0,0
19.09.2020 08:00:00 5,0 -0,4 7 4 31 17 WNW 1025,6 50 0,0
19.09.2020 07:00:00 5,3 -0,5 6 4 19 11 WNW 1025,4 50 0,0
19.09.2020 06:00:00 5,3 -0,5 5 3 23 13 WNW 1025,4 50 0,0
19.09.2020 05:00:00 5,1 -0,8 4 2 17 9 NW 1025,3 50 0,0
19.09.2020 04:00:00 4,7 -0,8 4 2 22 12 NW 1025,5 50 0,0
19.09.2020 03:00:00 5,3 -0,7 8 4 22 12 WNW 1025,4 50 0,0
19.09.2020 02:00:00 5,5 -1,2 8 4 32 17 WNW 1025,3 50 0,0
19.09.2020 01:00:00 6,0 -0,1 7 4 32 18 WNW 1025,2 50 0,0
19.09.2020 00:00:00 5,7 0,1 6 3 26 14 WNW 1025,4 50 0,0
18.09.2020 23:00:00 5,1 0,3 5 3 19 10 NW 1025,4 50 0,0
18.09.2020 22:00:00 3,9 -0,5 4 2 13 7 NW 1025,9 50 0,0
18.09.2020 21:00:00 5,0 -0,6 5 3 16 9 N 1025,2 50 0,0
18.09.2020 20:00:00 6,0 0,3 9 5 23 13 NW 1024,7 50 0,0
18.09.2020 19:00:00 7,2 0,7 5 3 33 18 WNW 1024,0 50 0,0
18.09.2020 18:00:00 8,2 0,7 7 4 35 19 WNW 1023,5 50 0,0
18.09.2020 17:00:00 9,1 0,3 8 5 29 15 WNW 1023,0 50 0,0
18.09.2020 16:00:00 11,1 1,6 9 5 31 17 W 1021,9 50 0,0
18.09.2020 15:00:00 10,3 2,4 8 5 23 13 W 1021,8 50 0,0
18.09.2020 14:00:00 9,9 4,1 7 4 26 14 W 1021,4 50 0,0
18.09.2020 13:00:00 10,5 6,6 11 6 42 23 WNW 1020,1 31 0,0
18.09.2020 12:00:00 10,9 8,1 8 5 30 16 WNW 1019,0 18 0,3
18.09.2020 11:00:00 13,3 5,2 6 4 20 11 W 1016,9 50 0,0
18.09.2020 10:00:00 12,4 4,9 6 4 20 11 W 1017,2 50 0,0
18.09.2020 09:00:00 10,9 3,7 4 2 28 15 WZW 1017,9 50 0,0
18.09.2020 08:00:00 9,9 3,0 9 5 26 14 W 1018,3 50 0,0
18.09.2020 07:00:00 9,5 2,4 4 2 19 11 W 1018,4 50 0,0
18.09.2020 06:00:00 9,6 2,0 6 3 21 12 ZZW 1018,9 50 0,0
18.09.2020 05:00:00 10,3 2,2 8 4 28 15 WZW 1019,4 50 0,0
18.09.2020 04:00:00 10,0 1,2 6 3 21 11 W 1020,0 50 0,0
18.09.2020 03:00:00 9,9 1,0 5 3 26 14 W 1020,5 50 0,0
18.09.2020 02:00:00 9,1 -0,2 7 4 31 17 WZW 1021,7 50 0,0
18.09.2020 01:00:00 8,0 -2,6 3 2 16 8 WZW 1022,4 50 0,0
18.09.2020 00:00:00 7,7 -3,2 4 2 18 10 WZW 1023,0 50 0,0
17.09.2020 23:00:00 8,2 -2,7 4 2 14 8 W 1023,9 50 0,0
17.09.2020 22:00:00 6,9 -3,3 4 2 9 5 W 1024,8 50 0,0
17.09.2020 21:00:00 5,0 -1,2 2 1 6 3 ZZO 1025,9 50 0,0
17.09.2020 20:00:00 6,0 -1,6 0 0 11 6 N 1025,9 50 0,0
17.09.2020 19:00:00 6,8 -2,0 3 2 8 5 ZW 1026,1 50 0,0
17.09.2020 18:00:00 7,7 -1,1 0 0 4 2 N 1026,5 50 0,0
17.09.2020 17:00:00 8,0 -3,5 0 0 7 4 N 1026,9 50 0,0
17.09.2020 16:00:00 8,1 -5,4 4 2 13 7 WNW 1027,2 50 0,0
17.09.2020 15:00:00 8,0 -4,1 5 3 13 7 WNW 1027,6 50 0,0
17.09.2020 14:00:00 9,0 -1,4 3 2 14 8 W 1027,6 48 0,0
17.09.2020 13:00:00 7,3 -0,4 5 3 14 8 W 1028,6 48 0,0
17.09.2020 12:00:00 6,5 -1,6 5 3 15 8 WNW 1029,2 50 0,0
17.09.2020 11:00:00 5,3 -1,6 6 3 21 11 W 1030,3 50 0,0
17.09.2020 10:00:00 4,3 -1,9 5 3 17 9 W 1030,5 50 0,0
17.09.2020 09:00:00 3,1 -1,6 4 2 21 12 W 1030,6 50 0,0
17.09.2020 08:00:00 1,7 -1,9 10 5 21 12 WNW 1031,1 50 0,0
17.09.2020 07:00:00 1,1 -2,5 7 4 16 9 NW 1031,2 50 0,0
17.09.2020 06:00:00 -0,1 -3,5 0 0 11 6 N 1031,7 50 0,0
17.09.2020 05:00:00 -0,3 -4,5 0 0 15 8 N 1031,6 50 0,0
17.09.2020 04:00:00 1,2 -3,7 6 3 13 7 WNW 1031,6 50 0,0
17.09.2020 03:00:00 1,6 -2,7 3 2 12 7 WZW 1030,7 50 0,0
17.09.2020 02:00:00 2,5 -1,7 5 3 17 9 WNW 1030,4 50 0,0
17.09.2020 01:00:00 2,3 -2,6 4 2 18 10 W 1029,8 50 0,0
17.09.2020 00:00:00 2,1 -2,4 5 3 16 8 WZW 1029,0 50 0,0
16.09.2020 23:00:00 2,2 -2,9 6 3 26 14 ZW 1028,9 50 0,0
16.09.2020 22:00:00 2,6 -3,7 5 3 26 14 WZW 1027,9 50 0,0
16.09.2020 21:00:00 2,6 -4,2 5 3 19 11 WNW 1027,4 50 0,0
16.09.2020 20:00:00 3,1 -3,0 5 3 25 13 WZW 1026,1 50 0,0
16.09.2020 19:00:00 3,7 -3,3 6 3 32 17 ZW 1024,9 50 0,0
16.09.2020 18:00:00 4,7 -2,0 6 3 29 16 ZZW 1023,4 50 0,0
16.09.2020 17:00:00 5,3 -2,1 9 5 32 17 W 1022,6 50 0,0
16.09.2020 16:00:00 7,2 -2,0 9 5 31 17 W 1021,3 48 0,0
16.09.2020 15:00:00 6,8 -1,4 8 4 26 14 W 1020,6 50 0,0
16.09.2020 14:00:00 8,1 0,1 7 4 27 14 WZW 1018,9 37 0,0
16.09.2020 13:00:00 7,3 0,3 9 5 35 19 W 1017,9 50 0,0
16.09.2020 12:00:00 7,6 0,8 6 4 23 12 W 1016,9 48 0,0
16.09.2020 11:00:00 6,8 0,9 5 3 21 11 ZW 1016,6 48 0,0
16.09.2020 10:00:00 - - - - - - - - - -
16.09.2020 09:00:00 - - - - - - - - - -
16.09.2020 08:00:00 2,8 -0,7 5 3 22 12 WZW 1014,7 50 0,0
16.09.2020 07:00:00 2,5 -0,4 8 4 25 13 W 1014,0 50 0,0
16.09.2020 06:00:00 3,8 1,2 12 7 31 17 WNW 1011,5 50 0,1
16.09.2020 05:00:00 6,0 3,3 9 5 36 19 WNW 1010,0 14 0,6
16.09.2020 04:00:00 10,4 7,8 3 2 - - W 1007,3 48 0,0
16.09.2020 03:00:00 10,4 8,0 3 2 11 6 ZW 1008,0 44 0,0
16.09.2020 02:00:00 10,2 7,8 3 2 10 5 ZZW 1009,1 15 0,0
16.09.2020 01:00:00 10,3 7,9 5 3 14 8 Z 1010,1 22 1,0
16.09.2020 00:00:00 10,4 8,2 5 3 16 9 ZZW 1011,5 10 1,7
15.09.2020 23:00:00 10,4 7,8 5 3 18 10 ZZW 1012,7 21 0,3
15.09.2020 22:00:00 10,5 8,2 8 4 19 10 Z 1013,8 50 0,0
15.09.2020 21:00:00 10,7 8,1 6 3 16 9 ZZO 1014,9 50 0,0
15.09.2020 20:00:00 10,6 8,2 5 3 12 7 ZO 1015,7 50 0,0
15.09.2020 19:00:00 10,6 7,8 3 2 12 6 ZZO 1016,7 36 0,1
15.09.2020 18:00:00 10,6 7,8 3 2 10 6 ZZO 1017,7 34 0,2
15.09.2020 17:00:00 11,2 8,2 4 2 10 5 ZO 1018,3 41 0,0
15.09.2020 16:00:00 11,1 7,2 3 2 11 6 O 1019,0 45 0,0
15.09.2020 15:00:00 11,7 7,6 3 1 6 3 ZZO 1019,5 48 0,0
15.09.2020 14:00:00 11,0 7,1 3 2 10 5 OZO 1020,4 40 0,0
15.09.2020 13:00:00 10,6 7,3 4 2 11 6 Z 1020,9 38 0,2
15.09.2020 12:00:00 9,1 5,8 3 2 7 4 OZO 1021,6 47 0,0
15.09.2020 11:00:00 8,9 5,3 3 2 11 6 OZO 1021,8 50 0,0
15.09.2020 10:00:00 7,7 5,3 3 2 6 4 OZO 1022,2 50 0,0
15.09.2020 09:00:00 6,7 3,8 0 0 4 2 N 1022,8 6 0,0
15.09.2020 08:00:00 6,4 3,2 0 0 4 2 N 1022,5 50 0,0
15.09.2020 07:00:00 6,0 3,0 0 0 4 2 N 1022,2 50 0,0
15.09.2020 06:00:00 5,9 2,7 0 0 3 2 N 1022,4 47 0,0
15.09.2020 05:00:00 5,9 2,5 0 0 3 2 N 1022,0 50 0,0
15.09.2020 04:00:00 6,2 3,1 0 0 6 3 N 1021,9 48 0,0
15.09.2020 03:00:00 6,3 3,3 0 0 6 3 N 1021,7 6 0,0
15.09.2020 02:00:00 6,6 3,4 0 0 7 4 N 1021,5 6 0,1
15.09.2020 01:00:00 6,5 3,5 2 1 6 4 NNW 1020,9 50 0,3
15.09.2020 00:00:00 7,0 3,6 2 1 10 5 NO 1020,5 10 0,1
14.09.2020 23:00:00 7,3 3,7 3 1 - - N 1020,0 50 0,0
14.09.2020 22:00:00 7,7 4,1 2 1 6 4 NNW 1019,4 50 0,0
14.09.2020 21:00:00 7,9 4,5 0 0 5 3 N 1018,9 50 0,0
14.09.2020 20:00:00 8,2 5,0 3 1 6 3 NNW 1018,4 50 0,0
14.09.2020 19:00:00 9,0 4,8 0 0 4 2 N 1018,0 27 0,2

tt = temperatuur
td = dauwpunt
ff = windsnelheid
fx = windstoten
dd = windrichting
ppp = luchtdruk
vv = zicht
rr = neerslag

Weerstations in de omgeving